TimeEDT,TemperatureF,Dew PointF,Humidity,Sea Level PressureIn,VisibilityMPH,Wind Direction,Wind SpeedMPH,Gust SpeedMPH,PrecipitationIn,Events,Conditions,WindDirDegrees,DateUTC
12:46 AM,37.4,35.6,93,30.00,9.0,Calm,Calm,-,N/A,,Scattered Clouds,0,2013-10-01 04:46:00
12:51 AM,37.0,36.0,96,30.02,8.0,Calm,Calm,-,N/A,,Scattered Clouds,0,2013-10-01 04:51:00
1:11 AM,37.4,37.4,100,30.00,10.0,Calm,Calm,-,N/A,,Mostly Cloudy,0,2013-10-01 05:11:00
1:49 AM,37.4,35.6,93,30.00,10.0,Calm,Calm,-,N/A,,Scattered Clouds,0,2013-10-01 05:49:00
1:51 AM,37.0,36.0,96,30.01,10.0,Calm,Calm,-,N/A,,Partly Cloudy,0,2013-10-01 05:51:00
2:51 AM,37.0,36.0,96,30.01,10.0,Calm,Calm,-,N/A,,Clear,0,2013-10-01 06:51:00
3:26 AM,37.4,35.6,93,30.00,10.0,Calm,Calm,-,N/A,,Scattered Clouds,0,2013-10-01 07:26:00
3:51 AM,37.0,35.1,93,30.00,10.0,Calm,Calm,-,N/A,,Mostly Cloudy,0,2013-10-01 07:51:00
4:51 AM,37.9,37.0,97,30.01,10.0,Calm,Calm,-,N/A,,Overcast,0,2013-10-01 08:51:00
5:46 AM,42.8,41.0,93,30.01,10.0,Calm,Calm,-,N/A,,Overcast,0,2013-10-01 09:46:00
5:51 AM,42.1,41.0,96,30.02,10.0,Calm,Calm,-,N/A,,Overcast,0,2013-10-01 09:51:00
6:04 AM,42.8,42.8,100,30.01,10.0,Calm,Calm,-,N/A,,Overcast,0,2013-10-01 10:04:00
6:51 AM,46.0,44.1,93,30.03,10.0,Calm,Calm,-,N/A,,Overcast,0,2013-10-01 10:51:00
7:51 AM,48.0,46.9,96,30.04,10.0,Calm,Calm,-,N/A,,Overcast,0,2013-10-01 11:51:00
8:51 AM,52.0,48.9,89,30.04,10.0,SW,4.6,-,N/A,,Mostly Cloudy,230,2013-10-01 12:51:00
9:51 AM,57.9,50.0,75,30.03,10.0,WSW,3.5,-,N/A,,Overcast,250,2013-10-01 13:51:00
10:51 AM,62.1,52.0,70,30.02,10.0,SW,5.8,-,N/A,,Mostly Cloudy,230,2013-10-01 14:51:00
11:51 AM,66.0,53.1,63,30.00,10.0,SSW,5.8,-,N/A,,Mostly Cloudy,210,2013-10-01 15:51:00
12:51 PM,68.0,53.1,59,29.98,10.0,SW,5.8,-,N/A,,Mostly Cloudy,220,2013-10-01 16:51:00
1:51 PM,70.0,52.0,53,29.96,10.0,WSW,10.4,-,N/A,,Mostly Cloudy,240,2013-10-01 17:51:00
2:51 PM,70.0,52.0,53,29.94,10.0,WSW,8.1,-,N/A,,Scattered Clouds,250,2013-10-01 18:51:00
3:51 PM,69.1,51.1,53,29.94,10.0,WSW,8.1,-,N/A,,Partly Cloudy,250,2013-10-01 19:51:00
4:51 PM,69.1,50.0,51,29.93,10.0,West,6.9,-,N/A,,Partly Cloudy,260,2013-10-01 20:51:00
5:51 PM,66.0,48.9,54,29.93,10.0,WSW,4.6,-,N/A,,Clear,240,2013-10-01 21:51:00
6:51 PM,60.1,48.9,67,29.94,10.0,WSW,3.5,-,N/A,,Clear,250,2013-10-01 22:51:00
7:51 PM,54.0,48.0,80,29.96,10.0,SW,3.5,-,N/A,,Clear,230,2013-10-01 23:51:00
8:51 PM,50.0,46.9,89,29.96,10.0,Calm,Calm,-,N/A,,Clear,0,2013-10-02 00:51:00
9:51 PM,46.9,46.0,97,29.95,8.0,Calm,Calm,-,N/A,,Clear,0,2013-10-02 01:51:00
10:51 PM,46.0,46.0,100,29.94,9.0,Calm,Calm,-,N/A,,Clear,0,2013-10-02 02:51:00
11:51 PM,44.1,43.0,96,29.93,5.0,Calm,Calm,-,N/A,,Clear,0,2013-10-02 03:51:00